GFSWCAN_con_3kmhel_273.txt.gz
Helicity
85 96 105 102 94 83 76 74 72 69 65 57 60 55 59 65 88 101 96 111 80 88 76 111 142 153 168 172 181 109 151 134 168 174 154 122 128 128 163 115 156 199 221 255 275 277 227 91 145 207 136 106 99 85
97 96 99 81 72 69 61 59 59 63 70 67 56 59 62 65 78 101 96 96 78 95 64 73 88 109 111 119 159 180 162 118 118 173 140 140 127 150 139 167 152 222 240 250 267 211 178 197 203 171 137 130 150 156
92 79 73 66 59 57 57 51 59 54 49 60 60 60 64 63 68 91 86 73 84 85 70 75 71 102 79 69 102 151 166 176 160 142 156 166 163 191 185 150 156 167 174 236 211 173 133 106 121 113 119 110 123 142
76 78 69 60 55 56 63 72 55 48 50 56 61 75 65 60 72 97 95 73 79 68 106 82 69 67 72 95 95 124 170 195 197 176 191 202 201 162 186 146 182 184 187 207 136 109 95 60 82 99 105 133 129 111
69 66 68 76 64 65 72 71 59 39 27 61 99 97 83 76 102 122 113 92 70 80 69 42 16 9 41 104 101 92 148 221 238 232 220 208 191 184 195 201 239 293 251 215 201 155 170 83 70 48 43 39 60 77
101 96 87 70 76 75 89 80 81 100 113 127 114 89 78 90 105 113 113 75 69 63 75 80 62 92 131 110 132 117 114 149 179 204 184 181 221 216 192 238 235 227 162 128 170 145 117 115 68 84 147 140 64 55
80 78 92 98 93 74 72 84 112 125 131 131 122 120 114 113 111 104 70 41 46 66 80 71 80 75 98 95 119 135 143 130 143 169 193 197 203 152 256 236 343 253 245 225 208 168 112 126 136 91 82 92 76 98
99 98 101 108 108 93 96 115 117 108 113 129 130 119 123 128 119 139 98 80 59 75 73 83 83 103 85 103 120 123 143 144 155 168 212 168 154 186 238 231 148 157 145 129 162 137 154 135 101 94 147 108 139 122
107 113 116 118 121 117 111 109 102 93 93 98 108 109 113 113 116 95 87 119 77 87 97 103 113 89 77 96 101 114 121 138 153 194 186 174 219 224 149 150 161 193 209 180 168 176 130 124 135 99 121 98 146 180
130 137 132 121 116 111 101 96 91 90 94 97 120 162 159 106 37 80 105 94 109 119 143 103 94 128 119 111 117 114 114 118 171 106 145 149 159 110 55 23 55 82 87 147 160 127 131 136 113 76 89 144 171 206
103 111 117 113 111 113 108 102 104 115 124 152 164 155 114 25 105 109 107 91 100 104 94 109 102 122 56 128 115 110 141 127 175 123 151 140 118 100 47 40 31 12 -8 28 63 91 86 93 83 87 96 183 197 168
85 82 84 84 86 88 83 87 117 138 126 99 109 127 110 109 119 120 119 124 120 145 145 157 110 61 50 61 101 113 136 168 182 171 168 190 148 82 51 64 81 76 49 33 55 91 63 101 50 79 142 211 193 140
77 73 66 73 73 72 73 103 99 95 102 148 171 138 104 97 171 133 135 148 169 169 146 117 115 80 78 75 111 129 157 148 171 226 213 198 124 112 96 103 153 172 216 221 164 98 136 184 169 162 116 62 79 85
71 66 59 58 74 74 78 115 122 112 173 171 147 142 114 131 147 187 206 209 182 185 155 110 93 112 104 115 124 177 145 211 308 288 232 185 164 99 110 127 172 196 238 231 280 260 165 126 92 65 41 59 100 77
81 76 63 63 65 72 86 121 126 128 161 166 144 142 161 187 245 204 170 167 112 98 106 112 95 103 97 112 65 82 136 256 253 250 195 181 140 132 136 110 90 65 95 91 89 113 147 177 180 173 121 58 43 65
112 155 129 77 72 88 109 129 150 138 165 152 147 163 168 207 191 167 154 156 107 104 83 79 119 144 128 134 183 168 195 212 243 390 330 274 217 87 34 6 15 12 -24 -12 -1 -10 -2 47 30 22 14 12 40 50
180 206 89 93 121 129 137 149 151 150 125 120 109 114 110 125 129 117 107 98 64 91 101 139 201 179 169 197 201 120 122 118 127 82 -5 -86 -68 -62 -12 21 30 19 16 24 10 -5 -16 16 18 40 18 39 98 93
169 116 111 100 102 130 140 114 97 74 72 63 91 90 98 90 76 73 55 74 101 109 130 124 136 200 234 278 263 116 75 89 57 28 -42 -93 -27 -0 26 25 24 22 13 5 4 -24 -44 -16 -42 -45 9 96 129 135
91 81 71 74 71 98 82 62 58 79 72 64 64 62 62 61 66 74 84 101 97 110 152 176 184 230 192 182 186 133 112 74 77 86 67 29 1 21 28 33 32 33 27 7 2 9 5 23 51 70 71 118 118 124
78 74 71 60 51 69 80 75 40 75 77 56 62 62 50 54 58 64 74 79 91 111 145 189 200 158 123 104 105 76 32 86 108 151 103 81 77 54 49 46 44 36 34 19 20 24 30 36 45 71 66 69 81 87
117 86 88 55 51 51 60 68 72 52 56 65 49 59 51 71 67 76 76 71 117 133 148 130 130 120 120 114 110 123 113 92 53 114 110 114 84 80 80 74 68 85 82 71 62 60 74 83 81 67 56 66 94 127
83 76 72 68 62 64 82 41 59 39 59 52 56 51 64 69 53 39 51 76 42 46 80 113 132 131 110 99 91 111 119 104 108 119 112 121 122 95 82 75 63 63 67 83 91 104 109 91 67 78 88 95 110 102
90 90 85 70 97 104 80 50 77 73 99 83 92 94 71 65 46 75 64 53 53 59 92 113 119 120 116 83 58 60 82 101 122 122 111 96 86 76 77 68 60 55 51 60 82 96 63 78 110 94 95 99 90 84
98 92 90 85 108 104 76 84 92 111 119 102 98 97 77 60 85 121 89 85 107 73 86 82 78 98 90 84 118 115 119 141 137 129 98 87 81 70 66 67 65 74 67 53 61 57 52 54 43 62 77 78 72 47
113 89 100 113 120 107 115 119 119 137 112 96 139 118 84 86 137 161 156 141 103 103 88 77 68 89 105 87 77 71 66 105 119 108 74 97 88 69 66 69 71 71 52 30 41 61 59 66 61 66 69 53 42 38
104 83 121 81 95 108 80 108 95 91 136 142 108 87 127 147 169 137 171 172 158 154 123 150 129 105 99 97 89 91 106 157 162 127 78 97 85 76 76 57 40 50 49 53 65 85 79 54 57 62 55 51 50 50
137 98 101 120 112 103 102 87 98 121 126 118 109 137 154 170 164 181 163 178 178 183 194 197 200 181 150 127 131 106 98 146 162 155 123 90 91 128 127 88 52 54 54 45 38 35 27 25 39 43 44 47 43 48
103 152 196 132 143 118 125 133 125 113 108 135 180 189 176 181 225 233 214 146 201 220 205 195 201 186 153 161 162 146 116 118 119 119 128 103 88 76 89 122 118 96 85 55 40 35 32 33 36 37 47 62 72 59
216 221 197 162 197 151 145 164 165 180 224 223 203 231 254 263 247 230 200 208 216 220 184 167 153 183 189 195 176 165 163 158 134 126 130 114 59 41 81 132 107 76 72 62 48 48 42 40 39 43 64 82 73 68
227 267 255 246 252 231 254 276 233 213 206 216 251 266 256 270 262 231 211 174 164 165 178 178 196 194 199 181 153 124 119 139 150 139 120 114 80 41 74 116 107 86 76 75 63 58 81 89 95 113 131 120 85 52
238 310 297 300 281 281 244 219 265 247 220 194 225 284 270 225 170 148 129 135 134 113 128 138 138 155 158 128 132 114 60 71 105 106 114 128 104 86 100 111 116 108 90 81 68 70 77 85 97 126 122 86 53 19
242 248 312 331 304 266 237 194 188 179 181 224 232 275 210 195 147 104 116 118 115 86 54 68 82 66 63 73 85 114 104 91 86 78 88 144 142 137 138 132 122 100 98 87 81 88 94 101 123 115 77 46 22 -0
261 279 293 309 320 272 212 194 181 175 213 237 198 145 168 135 104 103 122 114 93 59 49 53 58 48 32 36 64 80 101 114 147 174 205 219 194 147 116 106 95 87 85 88 95 100 108 120 110 76 55 31 3 -13

GFSWCAN_con_3kmhel_276.txt.gz
Helicity
141 106 121 89 84 94 81 86 95 93 87 77 72 72 76 99 109 108 115 135 83 99 79 106 116 111 159 164 155 89 153 128 161 172 153 123 141 131 143 115 143 151 181 252 312 357 226 97 121 214 143 153 138 109
121 86 81 84 87 78 79 95 91 81 79 68 65 68 68 84 96 108 113 118 110 100 70 76 80 99 126 122 140 143 131 107 106 167 119 147 161 166 155 158 132 174 240 226 272 213 178 166 170 160 166 149 124 139
104 99 115 95 91 90 93 96 96 92 82 72 68 67 66 72 103 85 98 93 97 100 100 96 87 85 82 102 131 169 173 143 138 131 147 162 176 181 162 157 174 146 167 223 222 225 163 120 138 127 116 81 90 124
118 136 98 98 86 88 88 79 75 77 79 76 68 63 70 73 83 86 101 93 84 86 117 92 61 85 72 79 97 127 138 186 185 178 173 179 189 141 156 150 194 196 179 183 144 112 117 109 128 106 113 76 109 96
117 83 83 80 70 69 67 67 67 67 71 69 71 57 58 86 103 130 109 95 63 91 87 80 60 69 52 64 108 130 168 194 192 197 188 164 186 196 170 186 192 226 155 212 232 145 202 144 119 100 116 104 87 102
72 66 69 59 65 78 80 67 54 54 71 77 76 82 66 61 98 102 114 70 71 65 102 117 97 116 128 110 123 135 118 138 157 159 164 177 209 181 178 209 144 104 121 130 158 156 143 144 151 155 141 129 136 140
85 81 68 75 82 80 76 69 63 66 99 104 110 98 83 97 101 121 93 63 66 65 90 101 117 131 125 117 134 153 155 131 144 161 168 195 165 167 229 238 207 148 143 154 190 190 116 128 143 103 117 118 141 88
89 80 81 76 79 90 83 112 136 153 162 174 143 124 129 135 109 148 148 83 63 84 94 109 118 128 99 130 148 130 144 149 159 164 192 166 152 210 231 92 89 84 96 122 124 115 159 153 126 118 87 86 98 90
98 100 95 95 103 109 149 158 162 166 164 163 163 168 172 163 146 97 62 99 75 94 104 110 117 101 102 124 121 129 127 143 167 177 181 183 174 172 120 121 67 61 87 100 106 90 103 129 127 117 98 56 72 103
106 116 109 106 115 133 129 137 132 133 139 149 182 193 180 119 67 69 115 109 120 115 116 126 124 162 128 123 125 124 126 128 161 118 154 191 147 147 128 79 60 42 45 41 44 53 46 63 108 118 96 86 77 101
137 132 126 125 127 124 120 114 116 140 165 193 185 163 129 63 120 112 114 120 108 126 116 140 133 127 82 132 118 108 127 118 164 137 175 196 147 148 102 91 50 51 64 73 66 73 63 28 62 94 99 88 85 96
143 139 132 119 108 104 107 119 139 171 146 109 108 139 117 113 113 123 133 120 121 140 138 147 128 87 74 68 111 106 132 166 176 182 213 228 185 144 88 37 29 20 27 98 145 173 173 158 182 159 132 127 131 152
152 149 144 137 133 122 106 115 94 82 107 168 162 122 102 108 155 135 125 128 137 122 110 98 112 96 75 81 131 132 162 153 188 238 261 257 194 132 64 68 66 76 103 112 146 172 160 189 196 188 246 203 164 86
125 129 125 117 106 111 112 105 99 124 164 144 137 151 133 133 135 145 161 157 158 142 114 95 104 122 104 133 137 173 135 164 241 277 247 198 141 122 112 114 127 154 132 103 84 122 139 130 96 76 64 47 77 113
95 98 91 90 93 116 121 115 98 120 146 144 135 153 167 133 173 153 143 154 136 128 124 112 124 122 123 125 128 158 165 201 212 206 164 183 233 219 199 156 118 70 39 25 30 16 -16 -7 16 29 19 0 18 28
75 102 100 78 84 102 119 152 149 137 148 137 142 154 150 178 156 161 155 149 103 101 80 104 136 131 103 148 188 167 236 264 258 229 231 228 239 188 125 41 -8 9 18 22 33 34 35 19 16 10 16 27 28 42
161 206 73 92 113 142 145 154 152 169 140 147 152 171 155 163 160 144 119 104 78 82 86 107 142 106 161 167 204 242 246 175 152 118 104 52 -2 -99 -94 -18 32 37 31 33 31 30 32 34 19 5 11 13 63 80
189 116 133 126 155 195 212 190 150 140 156 144 155 140 151 132 97 72 63 61 62 63 73 76 121 188 199 217 202 200 193 111 60 52 41 6 30 68 69 66 50 34 34 40 39 33 27 40 36 37 30 43 53 46
181 144 110 117 122 164 152 123 113 129 123 113 91 76 67 57 40 36 42 45 55 70 99 111 123 141 116 125 127 128 106 75 73 56 41 39 60 64 58 77 68 73 78 80 81 68 54 51 67 68 77 72 60 42
121 118 115 113 99 119 116 94 68 76 85 63 61 62 56 56 51 68 70 68 78 92 112 123 121 123 142 151 159 133 139 99 109 95 79 75 84 91 86 113 115 92 94 86 87 89 83 84 85 91 111 92 83 62
177 146 113 73 73 74 67 77 84 71 65 74 63 69 71 75 87 83 64 47 82 58 65 61 79 81 76 102 119 161 151 151 164 164 152 135 137 135 130 106 88 89 87 85 83 65 48 84 100 111 88 74 85 80
124 76 96 79 65 77 71 64 67 58 77 72 78 76 90 88 71 48 49 67 33 14 37 56 67 78 90 80 84 84 89 73 68 93 116 164 136 117 107 94 76 72 71 66 61 77 74 94 112 87 95 110 83 74
88 95 83 73 89 95 89 61 83 73 82 75 89 94 89 78 58 72 72 70 62 24 46 70 53 71 88 78 88 91 98 86 97 97 100 113 126 110 99 87 86 73 59 66 81 85 62 36 64 80 61 57 59 68
90 83 89 87 93 95 70 79 76 100 112 107 115 117 93 76 99 113 96 109 99 101 105 80 100 94 85 89 87 79 78 69 87 106 115 149 134 94 84 84 86 83 81 105 79 54 32 39 60 70 70 63 66 59
89 89 87 116 102 92 84 92 110 117 105 121 158 123 89 111 125 157 146 116 118 143 110 109 115 133 172 192 193 141 96 104 87 107 112 165 142 102 69 67 54 68 83 88 47 40 45 66 84 76 60 61 46 38
102 81 94 60 64 64 52 78 74 80 130 134 101 113 131 154 186 150 138 109 112 138 136 138 132 140 187 288 250 173 146 153 162 158 110 169 199 158 127 90 29 46 92 87 58 48 45 43 41 42 42 48 54 54
99 85 57 27 37 46 66 84 112 143 138 98 86 123 162 177 143 126 117 144 160 165 172 177 208 199 215 211 201 199 195 207 190 154 164 150 147 156 160 136 81 93 102 79 69 65 49 38 31 30 33 45 41 40
80 70 50 34 61 72 101 127 109 84 73 109 153 160 137 133 141 126 167 164 197 196 210 212 217 205 169 162 167 155 151 164 179 169 147 135 145 145 121 130 114 107 123 111 81 65 55 36 22 28 33 30 45 70
106 95 115 118 139 111 112 128 110 118 159 192 169 200 217 201 189 206 192 220 238 249 231 166 122 119 145 191 199 193 176 192 184 136 113 105 100 78 107 100 105 105 113 104 73 50 33 37 35 32 37 55 75 99
133 159 175 172 179 158 174 188 173 175 183 210 232 224 215 203 198 200 220 226 250 188 137 145 140 109 125 123 128 107 122 137 130 135 117 98 99 69 66 75 74 85 120 106 82 62 68 80 84 91 96 100 95 91
127 166 175 183 163 186 191 211 249 236 234 212 231 219 201 196 163 180 220 236 199 161 136 110 95 85 95 85 104 120 86 67 65 86 93 93 103 83 79 84 103 123 125 104 81 65 64 70 69 74 89 83 74 47
163 178 218 215 203 192 231 217 214 205 219 254 190 200 211 203 191 140 126 147 164 145 107 91 67 55 73 90 89 104 100 54 16 26 25 54 67 90 122 154 155 136 116 94 79 74 75 76 80 75 74 61 34 -9
267 285 266 252 250 243 191 164 193 182 223 237 216 192 176 152 106 89 116 116 128 122 84 65 52 51 50 50 56 62 69 84 97 115 131 133 141 144 144 142 121 105 92 83 86 81 81 81 75 75 67 33 5 -11

GFSWCAN_con_3kmhel_279.txt.gz
Helicity
248 247 191 152 143 134 118 109 103 102 98 99 95 97 120 113 110 122 131 132 95 97 118 116 111 113 144 150 165 112 182 151 166 167 132 126 142 127 118 128 125 159 194 210 227 251 177 89 131 220 198 157 157 158
283 234 152 139 123 100 101 111 117 106 103 101 93 96 110 107 103 119 129 141 124 107 88 102 123 144 114 107 132 137 145 119 112 157 137 154 143 123 120 127 140 161 193 203 188 178 142 169 137 143 160 146 153 161
225 147 146 166 122 124 113 112 111 100 90 84 87 90 97 102 94 76 111 124 124 123 128 119 133 119 108 132 127 165 131 123 138 140 134 147 145 150 137 106 157 177 174 197 204 148 91 74 80 92 77 118 126 137
153 130 144 143 140 122 112 107 93 86 85 84 83 77 79 76 97 103 115 120 92 102 136 110 97 113 103 105 118 124 143 176 178 147 143 145 163 124 145 140 160 159 144 135 130 88 100 115 156 148 104 89 94 100
151 135 103 111 119 132 116 100 101 91 84 81 80 78 82 80 104 143 134 124 86 105 96 127 100 128 110 104 137 139 167 174 159 161 160 160 174 158 146 138 142 130 66 179 183 92 109 74 62 82 97 86 77 78
142 140 135 132 103 98 96 98 100 93 79 81 67 61 63 91 103 104 135 96 94 138 155 187 113 138 143 152 173 169 171 164 163 156 148 143 162 138 160 149 71 33 83 107 110 78 53 61 66 45 64 64 55 66
149 121 103 98 88 76 82 82 82 78 79 76 70 80 83 111 113 109 90 85 107 98 143 135 118 147 147 149 146 150 152 135 137 140 133 147 129 155 195 198 130 139 96 94 69 101 100 89 89 67 74 77 73 62
100 75 80 79 74 72 66 71 84 90 100 105 97 90 100 76 85 165 191 124 106 134 147 140 127 120 104 119 130 120 136 143 151 152 149 143 151 186 173 131 111 93 79 69 82 73 78 68 59 54 52 62 77 56
74 75 79 68 77 67 53 58 84 126 135 113 109 99 128 167 170 135 95 127 115 119 127 125 118 108 120 141 129 134 127 143 147 154 159 146 151 139 167 114 114 89 96 83 57 44 55 52 50 57 50 49 72 55
84 85 92 93 96 102 104 120 144 131 129 136 176 192 208 168 80 87 132 129 140 138 133 136 136 150 116 126 132 123 125 142 144 128 130 166 102 152 163 129 79 67 57 51 52 102 70 79 109 110 67 70 125 84
93 84 94 107 119 116 127 123 132 187 221 189 174 179 143 94 134 133 125 135 127 123 121 139 147 140 124 134 128 113 122 116 132 142 139 160 80 122 102 94 80 46 17 9 22 57 95 72 74 136 203 164 94 111
104 95 118 136 141 152 150 144 179 210 148 82 106 154 166 128 107 124 144 120 120 117 112 126 117 112 111 93 118 98 117 115 127 143 151 143 106 116 89 65 46 22 22 17 38 58 78 84 90 67 51 88 112 138
103 117 126 129 127 120 111 126 114 78 76 201 172 125 106 110 142 136 123 115 122 96 89 99 125 109 94 86 116 101 120 121 147 166 166 131 95 79 81 77 66 77 106 98 73 62 59 50 19 44 66 51 50 60
119 125 118 119 121 109 118 74 127 134 166 129 127 158 120 114 119 121 114 114 108 112 119 119 132 113 100 102 111 124 123 138 172 187 156 133 172 155 168 188 187 179 140 112 81 53 50 41 23 15 20 12 7 4
149 153 146 139 142 130 116 160 140 134 153 141 139 134 127 107 135 115 124 150 154 126 101 110 115 102 110 114 108 120 114 142 139 162 171 199 213 174 143 122 90 66 27 13 30 37 36 46 49 36 34 23 38 43
155 163 132 135 122 110 116 130 158 158 154 133 133 124 101 158 142 150 153 156 118 98 76 92 99 105 100 100 111 97 157 200 203 170 154 121 109 58 34 10 -32 -20 30 54 62 54 50 51 51 37 39 46 27 12
192 202 94 117 131 137 132 155 175 165 142 156 154 121 100 131 139 133 105 83 54 76 94 88 105 103 94 119 114 123 159 149 130 98 52 22 17 -8 -2 33 54 65 93 90 79 72 67 51 39 35 43 43 42 23
171 103 90 101 160 205 242 220 192 159 173 153 142 136 139 136 112 86 52 41 47 59 63 79 85 104 116 130 151 113 69 57 71 70 58 57 46 62 65 47 49 74 87 89 83 79 56 52 52 66 63 58 57 41
145 145 137 133 166 256 218 178 156 145 144 145 150 132 106 80 59 45 41 40 48 48 60 64 90 80 87 95 101 99 87 68 69 85 101 85 100 106 113 121 134 130 124 116 85 75 64 60 70 71 68 65 81 89
190 197 198 206 157 176 168 161 119 125 124 89 85 84 72 63 48 48 45 44 51 62 67 55 52 70 81 72 63 76 76 73 93 106 111 104 100 80 85 91 102 95 106 94 81 69 53 48 39 34 56 69 89 83
215 195 162 136 140 114 108 131 122 86 83 78 75 73 68 58 58 50 48 44 63 50 46 53 69 53 41 47 59 59 59 67 91 109 118 118 106 102 96 92 83 94 91 74 67 56 42 62 65 66 68 81 72 60
165 70 83 72 90 94 79 99 68 63 69 63 72 67 79 66 54 54 51 66 52 45 43 54 49 52 57 62 71 51 48 36 49 75 76 85 123 96 77 89 110 103 85 70 59 64 60 53 61 68 12 41 53 45
107 121 94 79 100 95 100 87 96 80 78 74 86 99 85 77 67 64 73 68 64 48 51 53 52 75 79 77 93 75 78 72 103 104 104 105 102 116 138 141 131 112 80 57 50 48 46 47 41 53 39 43 46 41
115 104 111 98 89 90 80 88 73 84 85 92 95 94 78 75 89 103 99 94 61 57 78 89 125 99 98 111 131 138 120 171 190 203 153 123 111 92 91 129 121 94 64 47 43 48 57 50 40 49 42 30 41 42
98 108 81 100 73 78 79 84 86 91 98 96 118 101 81 91 110 119 124 81 82 75 62 74 95 115 148 155 177 167 140 180 164 174 139 116 127 113 104 108 142 130 90 57 66 71 53 57 56 48 38 35 33 27
102 73 77 63 73 78 55 80 74 93 112 124 91 98 109 133 148 132 107 82 92 73 73 93 109 135 165 223 203 199 159 122 163 169 149 117 139 122 118 113 113 111 106 60 63 57 48 46 48 41 25 19 20 24
92 69 62 36 45 50 73 89 92 106 98 86 82 120 138 158 132 124 99 79 75 78 91 119 161 173 194 202 175 155 143 133 174 188 164 139 133 118 127 131 141 137 127 80 62 67 63 45 45 30 15 18 23 37
73 58 56 24 57 63 75 83 71 53 56 77 146 139 124 128 123 122 118 108 117 115 117 146 184 211 207 146 124 124 115 123 131 163 166 147 131 90 107 140 140 151 142 113 100 102 83 64 45 32 27 29 36 59
43 25 44 59 77 76 56 59 53 59 100 160 168 167 155 157 162 159 156 155 131 151 162 138 149 183 130 105 105 98 105 109 124 104 104 107 62 44 75 93 81 110 115 119 112 109 90 75 57 41 43 44 59 64
30 63 85 86 106 83 68 75 97 119 134 175 193 185 169 180 204 202 192 161 161 162 150 166 183 138 92 73 47 46 72 99 150 158 142 105 63 45 40 72 61 78 118 132 130 125 124 99 72 58 52 55 61 54
93 130 122 113 99 92 97 125 162 156 176 184 221 228 182 189 189 184 173 163 166 190 200 164 120 116 88 63 53 61 53 83 100 71 76 72 57 52 55 59 67 99 119 123 120 103 89 78 64 47 44 52 55 53
65 85 105 103 91 81 116 94 106 131 163 193 191 167 148 139 165 151 108 122 126 111 102 121 111 90 73 58 64 88 93 101 79 80 64 70 56 54 69 94 125 139 136 130 113 91 80 73 64 56 49 51 50 45
111 122 123 101 101 96 97 108 106 92 134 156 140 139 141 107 88 81 71 73 91 102 112 100 84 75 57 47 63 74 80 86 85 92 88 102 135 131 108 104 110 114 110 105 99 93 73 71 68 60 50 47 43 17

GFSWCAN_con_3kmhel_282.txt.gz
Helicity
349 314 226 223 133 112 112 118 127 122 122 123 112 107 102 103 92 158 146 146 122 118 177 175 148 137 141 120 155 133 200 148 162 177 133 148 135 129 131 118 115 139 151 165 160 170 127 121 140 167 239 194 191 172
264 213 214 208 146 129 113 113 117 114 113 110 114 121 108 107 89 127 154 135 143 150 155 157 155 162 154 124 117 132 140 134 121 153 151 145 135 120 105 104 111 148 150 177 152 146 191 156 117 161 165 137 112 119
201 178 179 155 122 117 116 120 122 120 115 108 105 118 107 104 108 100 126 138 147 161 180 151 163 187 179 179 122 141 122 112 125 144 139 147 137 110 116 87 108 115 156 170 169 85 90 78 92 100 98 116 103 104
209 192 177 141 139 130 125 123 111 114 104 96 101 118 116 94 96 113 133 150 126 141 123 116 137 154 173 138 147 113 120 141 159 155 155 144 137 96 111 129 98 181 151 96 116 76 142 74 118 59 63 45 52 57
209 192 135 130 129 127 124 111 105 104 111 114 111 109 98 93 114 147 157 160 130 95 100 150 118 131 125 122 147 112 136 165 170 164 142 132 154 112 99 97 76 88 82 116 152 206 160 67 45 27 47 48 42 53
234 174 136 118 118 128 102 105 112 112 104 103 108 98 96 126 129 135 134 96 144 108 131 158 108 131 152 171 171 181 170 159 164 141 123 120 145 108 98 94 104 124 147 176 151 116 92 55 47 40 46 42 50 56
165 138 148 151 165 163 133 109 103 105 102 112 118 126 123 119 118 128 109 112 143 129 124 149 150 157 163 165 178 177 171 153 143 136 119 117 105 122 122 122 165 151 127 103 102 104 88 84 75 59 47 33 41 53
131 148 153 138 134 140 127 103 102 108 126 126 114 110 113 96 111 124 206 210 158 102 126 144 174 177 137 153 154 145 141 139 141 137 112 111 135 124 97 120 114 91 82 80 94 111 128 58 50 38 46 69 82 84
140 141 132 112 97 100 111 113 111 113 112 90 83 107 164 174 136 115 137 199 142 132 151 177 149 134 122 144 135 131 121 127 114 110 110 97 117 102 100 107 96 99 78 84 90 65 60 61 44 52 51 58 76 83
131 124 113 113 97 105 104 118 112 102 83 88 156 181 170 149 109 113 149 179 187 179 151 163 140 145 107 129 140 127 108 112 102 114 107 91 73 89 106 93 92 94 94 56 93 120 87 75 65 66 60 29 1 3
97 72 66 64 83 98 109 112 100 88 82 152 164 178 144 115 143 146 165 187 157 180 141 169 177 159 154 154 145 111 103 89 101 134 115 97 89 114 75 78 73 72 57 49 43 39 40 45 39 36 30 34 40 41
88 85 69 63 67 92 107 112 97 137 145 141 102 151 179 170 161 196 216 145 143 150 123 147 180 191 166 136 125 102 115 103 136 125 117 113 135 85 77 66 57 56 56 66 78 70 62 65 74 61 46 52 49 40
110 105 86 84 76 91 110 123 116 61 76 162 229 193 142 140 166 172 156 163 156 108 110 141 173 151 120 102 123 101 113 147 135 131 131 169 126 102 96 99 126 116 98 84 83 91 99 103 78 70 60 56 50 37
115 126 130 131 126 145 149 106 106 147 190 216 195 214 165 136 155 133 124 111 122 120 133 117 142 123 116 119 115 113 124 100 134 133 162 178 184 155 158 129 99 95 96 83 80 59 49 38 41 52 60 39 36 47
127 132 130 137 139 130 84 139 151 160 200 183 173 192 172 106 81 99 114 137 152 111 102 121 137 125 133 126 106 108 98 134 135 180 177 188 169 159 128 93 74 73 44 41 46 72 73 64 72 70 44 37 21 42
152 155 130 118 122 135 156 163 214 177 147 153 143 143 103 140 133 123 128 156 126 116 118 120 125 115 126 115 108 125 159 199 213 213 214 151 106 73 49 24 30 53 80 96 94 105 113 94 71 62 49 41 28 30
246 241 124 128 153 190 238 207 189 154 128 157 155 116 89 104 113 116 107 127 98 107 135 112 117 125 92 103 128 147 221 215 190 156 95 71 60 51 54 71 90 93 110 108 95 135 118 106 77 44 35 41 44 50
232 158 125 130 145 176 204 201 168 139 163 181 158 125 121 111 110 114 109 109 97 97 86 99 82 102 122 127 172 169 152 113 76 57 63 64 68 67 78 90 97 99 100 107 113 113 99 86 65 73 72 63 66 66
156 154 128 133 157 255 224 175 160 146 163 160 147 135 122 120 113 89 72 62 60 57 61 72 87 92 124 147 142 100 79 84 83 78 74 62 59 63 78 76 87 79 88 79 76 89 84 64 61 69 69 66 83 79
232 227 193 186 176 226 185 164 147 127 140 129 115 121 106 86 68 62 56 52 49 56 64 66 82 95 92 87 71 65 64 64 61 66 63 69 77 74 67 71 83 71 84 80 78 82 71 69 54 56 62 62 70 58
270 326 333 282 259 182 119 151 155 129 140 143 117 102 85 52 57 52 53 37 45 45 51 55 64 49 41 42 40 48 52 60 65 79 75 83 72 72 72 81 63 78 88 101 108 96 86 62 53 58 47 63 80 41
243 207 223 182 186 166 129 146 137 126 130 91 87 66 61 47 43 40 39 43 47 48 48 45 39 50 50 50 57 53 46 50 51 65 73 84 112 118 122 120 102 80 74 92 95 96 66 44 53 54 59 61 74 55
161 175 194 185 186 165 157 137 153 124 120 84 71 82 67 67 58 49 56 64 68 41 47 53 51 67 58 60 52 54 74 81 102 113 133 133 143 147 146 134 105 96 102 96 86 100 65 53 51 69 71 75 70 56
132 166 213 207 174 163 130 135 109 113 88 100 85 86 80 82 70 75 83 82 49 75 70 63 69 68 66 59 68 74 101 126 149 163 147 115 119 138 127 134 130 127 114 102 107 124 102 69 47 68 76 67 59 45
166 155 123 160 89 92 116 122 120 113 119 106 108 97 89 78 77 82 99 67 67 94 92 94 89 88 105 92 85 97 121 133 142 143 131 85 108 141 143 138 125 98 80 100 101 116 106 79 51 60 58 48 51 37
216 122 119 102 106 122 113 135 108 109 112 111 105 102 84 89 86 83 81 43 79 84 88 86 92 91 99 101 111 111 123 137 124 108 122 105 121 128 133 144 146 87 52 73 92 102 86 62 43 49 51 44 44 29
128 119 86 71 86 89 112 116 92 102 103 103 93 99 99 106 85 97 62 49 63 79 93 88 96 95 118 139 135 125 137 130 94 93 114 122 128 123 127 161 131 93 19 38 79 89 66 52 64 66 58 48 40 34
109 92 90 92 101 93 84 79 78 78 85 88 105 108 113 107 108 88 65 97 98 107 110 107 107 119 135 128 116 124 121 95 72 63 78 101 110 115 96 80 64 33 25 39 67 73 76 83 82 71 57 44 47 48
108 73 69 91 76 66 49 49 40 45 72 90 95 103 113 129 130 112 99 102 108 112 124 135 137 150 140 109 111 110 99 77 43 41 45 70 73 84 106 65 41 31 40 47 65 100 120 116 93 75 66 58 63 52
50 27 58 49 43 36 42 31 54 67 63 86 107 110 106 115 123 126 134 123 127 128 130 169 190 153 107 98 83 81 69 48 59 93 91 87 86 83 64 47 31 30 44 65 96 137 146 116 87 67 57 52 55 43
47 49 55 46 39 37 43 60 64 85 111 127 147 149 111 105 114 107 102 116 132 141 121 81 73 83 82 77 72 53 31 51 62 65 77 88 92 83 61 38 35 38 63 97 125 123 113 90 80 74 63 65 62 44
19 22 37 38 38 43 44 64 87 100 102 113 110 119 134 134 123 92 93 76 66 65 84 89 90 99 100 86 76 56 40 35 38 53 66 82 84 71 56 53 65 56 63 102 135 118 100 95 88 81 67 66 61 41
41 34 34 29 22 22 56 63 78 83 100 112 96 92 76 71 66 64 73 78 87 89 82 84 87 89 88 75 62 57 49 52 63 75 95 104 107 94 77 77 87 87 88 94 96 96 96 95 86 78 73 64 47 30

GFSWCAN_con_3kmhel_288.txt.gz
Helicity
696 564 509 394 317 286 273 233 294 195 112 143 154 155 165 198 209 230 209 249 175 190 360 414 379 212 139 208 248 162 271 204 191 172 159 181 165 126 131 109 153 170 160 166 138 146 59 129 91 102 214 174 180 175
670 589 480 407 308 280 243 258 211 103 132 135 142 143 152 174 143 194 201 211 176 213 225 278 459 489 499 200 167 136 188 126 136 158 136 130 168 130 131 187 159 158 103 147 109 95 117 96 84 167 206 215 189 135
620 682 471 368 326 271 247 231 117 134 128 138 141 127 150 156 170 197 174 131 205 232 272 277 355 371 368 339 190 212 163 132 133 160 138 111 147 97 179 145 173 134 99 145 163 79 73 152 177 266 314 217 169 200
590 525 398 362 303 292 273 179 121 141 135 135 145 155 149 159 162 155 177 164 148 173 188 229 171 215 202 142 126 113 155 142 127 151 143 127 160 133 204 204 172 190 176 129 121 69 108 134 301 312 227 234 156 129
466 373 328 302 292 280 242 126 126 131 150 164 149 141 154 158 175 219 247 255 222 170 160 188 190 223 185 128 112 104 95 135 143 136 130 135 193 162 135 156 116 78 121 157 155 340 289 292 312 234 206 120 139 117
406 363 308 272 264 231 142 134 138 147 158 150 138 131 130 110 122 235 257 221 199 118 98 226 186 206 173 198 185 163 167 170 127 106 130 187 173 144 142 102 136 221 278 339 321 312 279 215 140 235 129 121 121 92
335 295 280 235 191 133 167 179 201 167 169 172 171 166 165 191 230 224 191 171 192 124 80 86 133 201 131 131 167 210 160 135 105 149 154 137 96 129 156 139 217 308 244 199 232 153 157 184 141 105 89 97 116 111
282 261 254 197 136 171 180 181 189 179 181 197 196 197 192 113 119 225 195 245 244 168 145 91 115 125 123 86 119 93 124 145 128 156 163 145 166 120 125 125 271 281 182 105 171 108 87 89 75 94 102 102 115 128
224 213 190 157 159 179 204 209 188 170 175 190 174 172 255 258 209 122 167 276 255 137 155 89 91 128 135 139 105 130 154 180 150 163 141 144 143 130 107 227 281 238 179 182 138 105 123 107 106 106 105 117 140 123
215 189 175 179 191 181 156 170 175 163 176 155 233 264 248 147 100 115 142 173 186 149 144 134 108 117 94 122 153 146 140 153 163 126 144 139 137 157 253 242 178 168 121 113 130 125 100 102 120 139 119 116 108 113
200 189 190 193 177 176 162 121 101 101 133 259 278 269 141 132 154 118 121 129 123 133 114 96 83 111 62 116 160 164 154 145 157 140 123 119 183 273 204 148 143 128 117 96 91 85 84 97 88 93 112 124 130 153
174 177 174 163 146 124 84 84 109 225 190 130 127 182 193 135 116 132 160 154 141 153 112 141 122 182 236 172 178 159 190 142 192 138 135 164 196 188 156 110 121 96 90 94 73 71 89 102 123 131 172 193 187 194
155 140 143 128 108 103 65 23 167 82 60 181 286 225 123 99 169 179 235 233 182 126 185 234 216 171 221 215 176 167 162 196 187 170 166 231 261 215 161 129 109 121 150 139 107 102 101 98 152 205 247 207 193 164
135 144 150 146 126 87 118 129 81 215 257 253 212 257 178 165 172 172 151 132 154 132 128 181 273 231 186 197 153 164 165 162 168 160 190 333 217 187 133 129 114 99 87 78 70 73 114 148 137 129 138 146 156 137
145 147 150 152 159 128 112 155 200 225 307 294 234 271 207 134 182 159 122 111 153 216 229 188 209 157 198 176 139 164 152 170 148 236 287 243 172 148 112 89 93 83 78 84 92 114 128 136 140 140 127 116 110 114
152 161 137 119 91 96 127 152 223 242 250 229 152 158 144 116 122 153 186 198 122 110 146 184 204 174 176 151 169 165 168 208 274 248 186 139 117 96 97 98 87 88 90 95 100 103 115 132 119 118 102 124 117 102
208 193 157 162 152 176 211 239 271 215 163 183 172 97 132 172 185 176 186 180 125 149 215 179 182 182 133 131 186 230 256 244 181 131 133 147 131 114 77 71 82 78 90 98 97 109 113 120 112 94 83 81 100 87
216 154 171 149 175 233 328 322 265 167 192 218 154 166 184 169 185 155 130 137 127 135 142 161 119 150 145 179 197 156 160 138 121 124 121 107 90 77 75 72 49 53 67 79 95 91 89 66 51 61 87 87 97 99
163 139 191 202 191 294 323 249 214 185 236 211 184 173 195 208 180 149 147 138 126 113 135 145 144 155 196 173 164 151 118 112 115 91 88 79 63 53 32 18 46 63 74 78 86 105 98 87 93 84 95 102 110 108
287 277 226 234 283 356 246 229 239 210 279 242 142 145 153 147 120 117 113 107 108 121 134 153 171 179 157 148 138 109 94 93 78 75 66 60 49 58 48 48 62 67 93 83 85 91 99 106 111 111 115 112 123 123
291 313 342 300 340 220 177 245 231 174 224 222 153 125 136 92 114 113 114 101 135 142 131 100 96 111 104 77 77 81 76 55 74 77 62 60 51 44 58 79 86 100 85 90 98 97 95 103 99 102 112 100 125 115
325 282 382 284 255 187 178 187 160 142 183 164 131 115 152 136 118 111 86 124 118 86 73 68 64 58 61 69 72 59 66 73 68 59 56 53 70 77 85 103 93 90 88 89 100 94 102 98 80 78 86 103 113 101
279 340 301 221 156 166 192 187 188 174 169 156 140 155 134 117 100 74 118 75 65 56 56 61 69 74 98 91 63 51 67 70 77 83 85 90 93 102 118 123 121 95 89 92 96 104 126 98 98 97 90 82 95 88
265 216 191 179 172 167 170 200 180 191 134 129 136 153 138 129 89 106 104 76 63 41 40 63 69 71 67 70 72 70 70 88 105 107 91 95 118 137 134 123 111 99 90 97 96 110 128 99 74 80 58 75 80 75
184 206 172 192 155 165 168 190 173 168 165 161 180 152 128 115 124 94 78 69 38 51 64 70 68 64 69 76 81 86 87 102 112 120 127 135 151 143 123 108 100 84 82 97 100 96 101 70 62 46 36 81 91 78
249 174 184 160 157 168 144 163 145 140 176 176 170 139 113 106 101 95 70 54 54 71 84 94 94 78 75 82 95 101 127 146 147 139 144 162 146 126 104 93 81 60 81 123 130 104 94 59 48 27 25 54 62 77
191 156 136 141 116 141 204 200 151 166 187 156 126 113 101 117 91 78 69 57 63 77 74 77 76 73 98 116 128 132 132 134 143 157 149 110 87 82 82 79 69 98 107 116 111 98 95 61 47 40 40 39 79 103
142 119 130 129 161 151 205 214 202 174 133 93 96 108 93 88 96 77 78 94 100 99 91 89 103 111 117 136 147 129 122 121 121 89 79 75 73 95 151 115 75 61 77 96 101 97 83 67 56 47 70 97 101 107
181 132 149 199 220 225 212 164 132 112 80 73 98 101 80 65 74 74 101 124 115 119 108 96 102 113 105 95 88 86 90 107 95 65 58 79 93 105 90 65 60 59 66 75 70 87 95 109 86 88 100 92 98 82
195 148 184 212 206 167 136 104 98 93 86 74 66 63 58 62 66 71 81 83 85 96 113 123 129 100 74 66 52 58 88 105 114 111 100 99 101 91 70 61 60 54 62 74 86 112 144 78 43 6 59 72 111 84
118 114 136 118 119 109 86 57 42 39 43 48 56 54 49 62 69 52 62 88 118 120 106 85 69 65 64 55 53 58 75 156 202 166 139 124 107 92 80 70 56 58 68 84 98 114 115 106 109 108 107 107 106 62
110 109 104 113 92 68 40 56 48 38 31 22 26 34 37 49 47 72 127 96 86 76 77 77 70 83 104 93 96 109 132 136 135 144 149 145 121 93 80 68 62 65 69 83 101 115 99 88 89 94 91 98 71 51
103 97 94 86 82 70 57 38 31 24 6 -15 -5 38 35 56 72 108 96 92 91 102 107 93 83 81 85 93 106 121 126 121 136 128 143 145 102 95 76 74 74 63 62 76 96 104 98 90 87 82 86 73 64 58